Terminal Aerodrome Forecast
Issued by NWS

Home | Current Version | Previous Version | Text Only | Print | Product List | Glossary On
Versions: 1 2 3 4 5 6 7 8 9 10 11 12 13 14 15 16 17
226
FTUS42 KTAE 241508 AAA
TAFABY
TAF AMD
KABY 241508Z 2415/2512 25008KT P6SM SCT025 BKN035
      TEMPO 2415/2417 BKN025
     FM242100 26009KT 4SM TSRA BKN030CB
     FM250000 24005KT P6SM BKN050=

USA.gov is the U.S. government's official web portal to all federal, state and local government web resources and services.